Previsão horária em Barnimie

Hoje, 5 Agosto, Quinta-feira

Tempo Temperatura Precipitação Vento Pressão Humidade
00:00 +14°C° 0 mm 2 m/s 752 mmHg 76%
01:00 +14°C° 0 mm 2 m/s 752 mmHg 79%
02:00 +13°C° 0 mm 2 m/s 752 mmHg 80%
03:00 +13°C° 0 mm 2 m/s 752 mmHg 82%
04:00 +13°C° 0 mm 2 m/s 752 mmHg 84%
05:00 +14°C° 0 mm 2 m/s 752 mmHg 78%
06:00 +16°C° 0 mm 3 m/s 752 mmHg 72%
07:00 +17°C° 0 mm 3 m/s 752 mmHg 66%
08:00 +19°C° 0 mm 3 m/s 751 mmHg 59%
09:00 +21°C° 0 mm 3 m/s 751 mmHg 53%
10:00 +24°C° 0 mm 3 m/s 751 mmHg 46%
11:00 +24°C° 0 mm 3 m/s 751 mmHg 44%
12:00 +25°C° 0 mm 3 m/s 750 mmHg 41%
13:00 +26°C° 0 mm 3 m/s 750 mmHg 39%
14:00 +25°C° 0 mm 3 m/s 750 mmHg 41%
15:00 +24°C° 0 mm 3 m/s 749 mmHg 44%
16:00 +24°C° 0 mm 3 m/s 749 mmHg 47%
17:00 +23°C° 0 mm 2 m/s 749 mmHg 51%
18:00 +21°C° 0 mm 2 m/s 749 mmHg 55%
19:00 +20°C° 0 mm 2 m/s 749 mmHg 58%
20:00 +19°C° 0 mm 2 m/s 749 mmHg 60%
21:00 +19°C° 0 mm 2 m/s 749 mmHg 63%
22:00 +18°C° 0 mm 2 m/s 749 mmHg 65%
23:00 +17°C° 0 mm 2 m/s 749 mmHg 68%

Amanhã, 6 Agosto, Sexta-feira

Tempo Temperatura Precipitação Vento Pressão Humidade
00:00 +17°C° 0 mm 2 m/s 749 mmHg 71%
01:00 +16°C° 0 mm 2 m/s 748 mmHg 74%
02:00 +16°C° 0 mm 2 m/s 748 mmHg 75%
03:00 +16°C° 0 mm 1 m/s 748 mmHg 76%
04:00 +16°C° 0 mm 1 m/s 748 mmHg 77%
05:00 +18°C° 0 mm 1 m/s 748 mmHg 74%
06:00 +19°C° 0 mm 1 m/s 748 mmHg 71%
07:00 +20°C° 0 mm 1 m/s 748 mmHg 67%
08:00 +20°C° 0.2 mm 2 m/s 748 mmHg 63%
09:00 +21°C° 0.2 mm 2 m/s 748 mmHg 60%
10:00 +23°C° 0.2 mm 2 m/s 748 mmHg 56%
11:00 +24°C° 0.2 mm 2 m/s 748 mmHg 50%
12:00 +25°C° 0.2 mm 2 m/s 747 mmHg 44%
13:00 +26°C° 0.2 mm 2 m/s 747 mmHg 39%
14:00 +26°C° 0 mm 2 m/s 747 mmHg 38%
15:00 +26°C° 0 mm 2 m/s 747 mmHg 36%
16:00 +26°C° 0 mm 2 m/s 747 mmHg 35%
17:00 +25°C° 0 mm 2 m/s 747 mmHg 39%
18:00 +23°C° 0 mm 2 m/s 747 mmHg 43%
19:00 +21°C° 0 mm 2 m/s 747 mmHg 47%
20:00 +20°C° 0 mm 3 m/s 747 mmHg 50%
21:00 +19°C° 0 mm 3 m/s 747 mmHg 53%
22:00 +18°C° 0 mm 4 m/s 747 mmHg 56%
23:00 +17°C° 0 mm 3 m/s 747 mmHg 59%

Depois de amanhã, 7 Agosto, Sábado

Tempo Temperatura Precipitação Vento Pressão Humidade
00:00 +17°C° 0 mm 3 m/s 747 mmHg 62%
01:00 +16°C° 0 mm 3 m/s 747 mmHg 64%
02:00 +16°C° 0 mm 2 m/s 747 mmHg 69%
03:00 +15°C° 0 mm 2 m/s 747 mmHg 74%
04:00 +14°C° 0 mm 2 m/s 746 mmHg 79%
05:00 +16°C° 0 mm 2 m/s 747 mmHg 78%
06:00 +17°C° 0 mm 3 m/s 747 mmHg 77%
07:00 +19°C° 0 mm 3 m/s 747 mmHg 77%
08:00 +20°C° 0 mm 4 m/s 747 mmHg 69%
09:00 +22°C° 0 mm 4 m/s 747 mmHg 61%
10:00 +23°C° 0 mm 4 m/s 747 mmHg 53%
11:00 +25°C° 0 mm 4 m/s 747 mmHg 50%
12:00 +25°C° 0 mm 4 m/s 747 mmHg 48%
13:00 +26°C° 0 mm 4 m/s 747 mmHg 45%
14:00 +26°C° 0 mm 3 m/s 747 mmHg 45%
15:00 +26°C° 0 mm 3 m/s 747 mmHg 45%
16:00 +26°C° 0 mm 3 m/s 747 mmHg 45%
17:00 +25°C° 0 mm 2 m/s 747 mmHg 49%
18:00 +24°C° 0 mm 1 m/s 747 mmHg 53%
19:00 +20°C° 0 mm 0 m/s 747 mmHg 57%
20:00 +22°C° 0 mm 1 m/s 747 mmHg 58%
21:00 +22°C° 0 mm 1 m/s 747 mmHg 58%
22:00 +20°C° 0 mm 2 m/s 747 mmHg 58%
23:00 +20°C° 0 mm 2 m/s 747 mmHg 59%

8 Agosto, Domingo

Tempo Temperatura Precipitação Vento Pressão Humidade
00:00 +20°C° 0 mm 2 m/s 747 mmHg 60%
01:00 +20°C° 0 mm 1 m/s 747 mmHg 61%
02:00 +19°C° 0.3 mm 2 m/s 747 mmHg 70%
03:00 +18°C° 0.3 mm 2 m/s 747 mmHg 78%
04:00 +17°C° 0.3 mm 2 m/s 746 mmHg 87%
05:00 +17°C° 0.2 mm 2 m/s 747 mmHg 88%
06:00 +17°C° 0.2 mm 2 m/s 747 mmHg 90%
07:00 +17°C° 0.2 mm 3 m/s 747 mmHg 91%
08:00 +18°C° 0.2 mm 3 m/s 747 mmHg 90%
09:00 +18°C° 0.2 mm 4 m/s 748 mmHg 88%
10:00 +18°C° 0.2 mm 4 m/s 748 mmHg 87%
11:00 +20°C° 0.1 mm 5 m/s 748 mmHg 74%
12:00 +22°C° 0.1 mm 5 m/s 748 mmHg 61%
13:00 +26°C° 0.1 mm 6 m/s 748 mmHg 47%
14:00 +26°C° 0 mm 5 m/s 749 mmHg 46%
15:00 +25°C° 0 mm 5 m/s 749 mmHg 44%
16:00 +25°C° 0 mm 5 m/s 749 mmHg 43%
17:00 +23°C° 0 mm 4 m/s 750 mmHg 47%
18:00 +22°C° 0 mm 4 m/s 750 mmHg 51%
19:00 +21°C° 0 mm 4 m/s 751 mmHg 55%
20:00 +20°C° 0 mm 4 m/s 751 mmHg 61%
21:00 +18°C° 0 mm 4 m/s 752 mmHg 67%
22:00 +17°C° 0 mm 3 m/s 752 mmHg 73%
23:00 +17°C° 0 mm 3 m/s 752 mmHg 74%

9 Agosto, Segunda-feira

Tempo Temperatura Precipitação Vento Pressão Humidade
00:00 +16°C° 0 mm 3 m/s 752 mmHg 76%
01:00 +16°C° 0 mm 3 m/s 753 mmHg 78%
02:00 +14°C° 0 mm 4 m/s 753 mmHg 81%
03:00 +14°C° 0 mm 4 m/s 753 mmHg 84%
04:00 +13°C° 0 mm 4 m/s 753 mmHg 88%
05:00 +14°C° 0 mm 4 m/s 753 mmHg 85%
06:00 +15°C° 0 mm 4 m/s 754 mmHg 82%
07:00 +15°C° 0 mm 4 m/s 754 mmHg 79%
08:00 +17°C° 0 mm 5 m/s 754 mmHg 70%
09:00 +20°C° 0 mm 5 m/s 755 mmHg 60%
10:00 +21°C° 0 mm 5 m/s 755 mmHg 50%
11:00 +22°C° 0 mm 5 m/s 755 mmHg 46%
12:00 +23°C° 0 mm 5 m/s 755 mmHg 41%
13:00 +25°C° 0 mm 5 m/s 755 mmHg 37%
14:00 +25°C° 0 mm 5 m/s 755 mmHg 40%
15:00 +23°C° 0 mm 4 m/s 755 mmHg 44%
16:00 +22°C° 0 mm 3 m/s 755 mmHg 47%
17:00 +21°C° 0 mm 3 m/s 755 mmHg 50%
18:00 +21°C° 0 mm 3 m/s 755 mmHg 52%
19:00 +20°C° 0 mm 3 m/s 756 mmHg 55%
20:00 +19°C° 0 mm 3 m/s 756 mmHg 58%
21:00 +19°C° 0 mm 2 m/s 756 mmHg 62%
22:00 +18°C° 0 mm 2 m/s 756 mmHg 66%
23:00 +17°C° 0.1 mm 2 m/s 756 mmHg 71%

10 Agosto, Terça-feira

Tempo Temperatura Precipitação Vento Pressão Humidade
00:00 +16°C° 0.1 mm 2 m/s 756 mmHg 76%
01:00 +15°C° 0.1 mm 2 m/s 757 mmHg 81%
02:00 +15°C° 0.1 mm 2 m/s 757 mmHg 85%
03:00 +14°C° 0.1 mm 2 m/s 756 mmHg 89%
04:00 +14°C° 0.1 mm 2 m/s 756 mmHg 93%
05:00 +14°C° 0 mm 3 m/s 756 mmHg 90%
06:00 +16°C° 0 mm 3 m/s 756 mmHg 87%
07:00 +16°C° 0 mm 3 m/s 757 mmHg 84%
08:00 +18°C° 0.2 mm 3 m/s 756 mmHg 77%
09:00 +19°C° 0.2 mm 3 m/s 756 mmHg 71%
10:00 +20°C° 0.2 mm 4 m/s 756 mmHg 64%
11:00 +21°C° 0.3 mm 4 m/s 756 mmHg 58%
12:00 +22°C° 0.3 mm 4 m/s 756 mmHg 52%
13:00 +23°C° 0.3 mm 4 m/s 756 mmHg 46%
14:00 +23°C° 0 mm 4 m/s 756 mmHg 45%
15:00 +23°C° 0 mm 4 m/s 756 mmHg 44%
16:00 +23°C° 0 mm 4 m/s 756 mmHg 43%
17:00 +22°C° 0 mm 3 m/s 756 mmHg 50%
18:00 +20°C° 0 mm 2 m/s 756 mmHg 56%
19:00 +20°C° 0 mm 1 m/s 756 mmHg 63%
20:00 +19°C° 0 mm 1 m/s 756 mmHg 65%
21:00 +19°C° 0 mm 1 m/s 756 mmHg 68%
22:00 +16°C° 0 mm 0 m/s 756 mmHg 70%
23:00 +16°C° 0 mm 0 m/s 756 mmHg 70%
Mostrar mais